Quantico, VA

10:21 AM EST on December 10, 2016 (GMT -0500)
Quantico Marine Corps Air Facility

Weather History for KNYG - November, 2013

Change the Weather History Date:

Sunday, November 17, 2013

  Actual Average Record
Temperature  
Mean Temperature 54 °F -  
Max Temperature 57 °F 53 °F 66 °F (1998)
Min Temperature 50 °F 36 °F 24 °F (1996)
Degree Days  
Heating Degree Days 12    
Growing Degree Days 4 (Base 50)    
Moisture  
Dew Point 51 °F    
Average Humidity 91    
Maximum Humidity 100    
Minimum Humidity 84    
Precipitation  
Precipitation 0.03 in - - ()
Sea Level Pressure  
Sea Level Pressure 30.13 in    
Wind  
Wind Speed 3 mph (SSW)    
Max Wind Speed 13 mph    
Max Gust Speed -    
Visibility 4 miles    
Events Fog , Rain    
Averages and records for this station are not official NWS values.
T = Trace of Precipitation, MM = Missing Value Source: NWS Daily Summary

Daily Weather History Graph

Daily Weather History Graph

Search for Another Location

Airport or City:

Trip Planner

Search our weather history database for the weather conditions in past years. The results will help you decide how hot, cold, wet, or windy it might be!

Date:

Astronomy

Nov. 17, 2013 Rise Set
Actual Time 6:53 AM EST 4:54 PM EST
Civil Twilight 6:24 AM EST 5:23 PM EST
Nautical Twilight 5:52 AM EST 5:55 PM EST
Astronomical Twilight 5:21 AM EST 6:26 PM EST
Moon 5:10 PM EST (11/17) 6:45 AM EST (11/17)
Length of Visible Light 10h 58m
Length of Day
10h 01m
Full, 100% of the Moon is Illuminated
Nov 17
Full
Nov 25
Last Quarter
Dec 2
New
Dec 9
First Quarter
Dec 17
Full

Hourly Weather History & Observations

Time (EST) Temp. Dew Point Humidity Pressure Visibility Wind Dir Wind Speed Gust Speed Precip Events Conditions
12:56 AM 51.1 °F 48.9 °F 92% 30.25 in 0.5 mi Calm Calm - N/A Fog Fog
1:12 AM 51.8 °F 48.2 °F 88% 30.24 in 1.2 mi Calm Calm - N/A   Overcast
1:17 AM 51.8 °F 48.2 °F 88% 30.24 in 2.0 mi Calm Calm - N/A   Overcast
1:32 AM 51.8 °F 50.0 °F 94% 30.24 in 3.0 mi Calm Calm - N/A   Overcast
1:50 AM 51.8 °F 48.2 °F 88% 30.23 in 1.8 mi ESE 3.5 mph - N/A   Overcast
1:53 AM 51.8 °F 48.2 °F 88% 30.23 in 1.2 mi Calm Calm - N/A   Overcast
1:56 AM 51.1 °F 48.9 °F 92% 30.24 in 1.0 mi Calm Calm - N/A   Overcast
2:04 AM 51.8 °F 48.2 °F 88% 30.23 in 0.8 mi Calm Calm - N/A   Overcast
2:30 AM 51.8 °F 48.2 °F 88% 30.22 in 1.5 mi South 3.5 mph - N/A   Overcast
2:56 AM 52.0 °F 50.0 °F 93% 30.21 in 2.0 mi SW 3.5 mph - N/A   Overcast
3:18 AM 51.8 °F 50.0 °F 94% 30.21 in 3.0 mi WSW 3.5 mph - N/A   Overcast
3:56 AM 53.1 °F 51.1 °F 93% 30.21 in 4.0 mi SSW 3.5 mph - N/A   Overcast
4:15 AM 51.8 °F 48.2 °F 88% 30.19 in 1.8 mi SE 4.6 mph - N/A   Overcast
4:31 AM 51.8 °F 48.2 °F 88% 30.20 in 2.0 mi Calm Calm - N/A   Overcast
4:47 AM 51.8 °F 50.0 °F 94% 30.18 in 4.0 mi Calm Calm - N/A   Overcast
4:56 AM 52.0 °F 50.0 °F 93% 30.19 in 3.0 mi Calm Calm - N/A   Overcast
5:05 AM 51.8 °F 48.2 °F 88% 30.19 in 2.5 mi Calm Calm - N/A   Overcast
5:47 AM 51.8 °F 48.2 °F 88% 30.18 in 1.8 mi ESE 3.5 mph - N/A   Overcast
5:56 AM 51.1 °F 48.9 °F 92% 30.18 in 1.0 mi Calm Calm - N/A   Overcast
6:03 AM 51.8 °F 48.2 °F 88% 30.18 in 0.5 mi Calm Calm - N/A Fog Fog
6:56 AM 50.0 °F 48.9 °F 96% 30.17 in 0.5 mi South 4.6 mph - N/A Fog Fog
7:56 AM 51.1 °F 48.9 °F 92% 30.18 in 0.2 mi South 5.8 mph - N/A Fog Fog
8:22 AM 51.8 °F 50.0 °F 94% 30.19 in 1.2 mi SSW 3.5 mph - N/A   Overcast
8:35 AM 51.8 °F 48.2 °F 88% 30.19 in 0.5 mi SSE 4.6 mph - N/A Fog Fog
8:56 AM 51.1 °F 50.0 °F 96% 30.18 in 0.2 mi South 6.9 mph - N/A Fog Fog
9:32 AM 53.6 °F 51.8 °F 94% 30.18 in 1.5 mi SSW 5.8 mph - N/A   Overcast
9:43 AM 51.8 °F 51.8 °F 100% 30.18 in 2.0 mi SW 5.8 mph - N/A   Overcast
9:56 AM 53.1 °F 51.1 °F 93% 30.18 in 4.0 mi SW 5.8 mph - N/A   Overcast
10:17 AM 53.6 °F 51.8 °F 94% 30.17 in 8.0 mi SW 6.9 mph - N/A   Overcast
10:34 AM 53.6 °F 51.8 °F 94% 30.17 in 7.0 mi SW 6.9 mph - N/A   Overcast
10:52 AM 53.6 °F 51.8 °F 94% 30.16 in 6.0 mi SW 6.9 mph - N/A   Overcast
10:56 AM 54.0 °F 52.0 °F 93% 30.16 in 6.0 mi SW 6.9 mph - N/A   Overcast
11:56 AM 54.0 °F 52.0 °F 93% 30.13 in 6.0 mi South 8.1 mph - N/A   Overcast
12:07 PM 53.6 °F 51.8 °F 94% 30.12 in 7.0 mi SSW 4.6 mph - N/A   Overcast
12:56 PM 55.0 °F 53.1 °F 93% 30.09 in 10.0 mi WSW 5.8 mph - N/A   Overcast
1:56 PM 57.9 °F 55.0 °F 90% 30.06 in 10.0 mi SSW 3.5 mph - N/A   Overcast
2:56 PM 57.9 °F 54.0 °F 87% 30.02 in 8.0 mi South 4.6 mph - N/A   Mostly Cloudy
3:56 PM 57.9 °F 53.1 °F 84% 30.01 in 10.0 mi SSW 5.8 mph - N/A   Mostly Cloudy
4:56 PM 57.0 °F 53.1 °F 87% 29.99 in 10.0 mi SW 5.8 mph - N/A   Scattered Clouds
5:56 PM 57.9 °F 54.0 °F 87% 29.98 in 10.0 mi SSW 6.9 mph - N/A   Mostly Cloudy
6:56 PM 55.9 °F 53.1 °F 90% 29.94 in 10.0 mi SW 6.9 mph - N/A   Clear
7:56 PM 57.9 °F 54.0 °F 87% 29.93 in 10.0 mi SW 8.1 mph - 0.00 in Rain Light Rain
8:56 PM 57.0 °F 53.1 °F 87% 29.89 in 10.0 mi SSW 5.8 mph - 0.00 in   Partly Cloudy
9:56 PM 55.9 °F 53.1 °F 90% 29.86 in 10.0 mi SSW 5.8 mph - N/A   Mostly Cloudy
10:56 PM 55.9 °F 53.1 °F 90% 29.83 in 10.0 mi SW 5.8 mph - 0.01 in   Mostly Cloudy
11:56 PM 57.9 °F 55.0 °F 90% 29.79 in 10.0 mi SSW 12.7 mph - 0.02 in   Overcast